Погода в Старокучергановке

Россия / Астраханская область     46˚19′34″N   47˚57′15″E
темп.,
°C
ветер,
м/с
пор.,
м/с
влажн.,
%
обл.,
%
осадки,
мм/ч
давл.,
гПа
погр.,
м
16 января, сб
сб1601:00з71076100 0.0 1010673
04:00−2˚з6128269 0.0 1012490
07:00−3˚з478089 0.0 1015345
10:00−2˚з477466 0.0 1018328
13:00+2˚юз345641 0.0 1018406
16:00+3˚юз465120 0.0 1017619
19:00ююз35710 0.0 1018105
22:00−1˚ююз34820 0.0 101871
17 января, вс
вс1701:00−2˚зсз11851 0.0 101721
04:00−2˚св358845 0.0 1016130
07:00−3˚св488299 0.0 1014229
10:00−2˚всв6107490 0.0 1013373
13:00+2˚всв71059100 0.0 1011670
16:00+1˚св71161100 0.0 1009693
19:00−1˚св61168100 0.0 1009520
22:00−2˚св6127295 0.0 1008478
18 января, пн
пн1801:00−2˚св6127599 0.0 1007422
04:00−2˚св6127499 0.0 1005460
07:00−3˚св51183100 0.0 1004411
10:00−2˚с467799 0.0 1006421
13:00−1˚с5669100 0.0 1006442
16:00−3˚сз71065100 0.0 1007587
19:00−6˚зсз71072100 0.0 1010591
22:00−8˚зсз81273100 0.0 1012607
19 января, вт
вт1901:00−8˚сз71074100 0.0 1014534
04:00−9˚сз61075100 0.0 1016482
07:00−9˚зсз6975100 0.0 1018437
10:00−8˚зсз5872100 0.0 1019390
13:00−5˚з3559100 0.0 1020474
16:00−3˚з345367 0.0 1019502
19:00−6˚з23652 0.0 1019101
22:00−5˚юз226651 0.0 102046
20 января, ср
ср2001:00−4˚зюз51065100 0.0 1020401
04:00−5˚зсз5971100 0.0 1022680
07:00−8˚зсз596959 0.0 1023511
10:00−9˚зсз586430 0.0 1024558
13:00−7˚зсз67510 0.0 1025755
16:00−7˚зсз68490 0.0 1025783
19:00−9˚зсз58590 0.0 1027698
22:00−10˚зсз48670 0.0 1028597